Orbital Elements at Epoch 2459000.5 (2020-May-31.0) TDB
Reference: JPL 20 (heliocentric ecliptic J2000)
Element | Value | Uncertainty (1-sigma) | Units |
e | .03938779178858941 | 5.2271e-08 | |
a | 2.71132898654219 | 1.5029e-08 | au |
q | 2.604535724949899 | 1.4179e-07 | au |
i | 4.410619308020435 | 5.6648e-06 | deg |
node | 44.31415853615461 | 6.1966e-05 | deg |
peri | 123.5350985124911 | 8.5045e-05 | deg |
M | 89.18426023254894 | 5.7505e-05 | deg |
tp | 2458596.522231392384 (2019-Apr-23.02223139) | 0.00026029 | TDB |
period | 1630.691293727459 4.46 | 1.3559e-05 3.712e-08 | d yr |
n | .2207652677025744 | 1.8356e-09 | deg/d |
Q | 2.818122248134481 | 1.5621e-08 | au |
|
| | Orbit Determination Parameters
Additional Information
|